Location: Brantley
(31.5822°N, 86.2569°W)
Time: 12:11:51
(UTC+00:00)

Vanguard 3 - Pass Details

Date: 18 February 2026
Orbit: 507 x 3205 km, 33.4° (Epoch: 17 March)

Event Time Altitude Azimuth Distance (km) Brightness Sun altitude
Rises 17:25:49 0° 198° (SSW) 7,064 12.5 46.2°
Reaches altitude 10° 17:33:12 10° 183° (S) 5,781 12.4 46.5°
Maximum altitude 17:43:05 18° 147° (SSE) 4,488 11.9 46.8°
Drops below altitude 10° 17:50:52 10° 110° (ESE) 4,461 11.3 46.9°
Sets 17:55:19 0° 92° (E) 4,986 11.2 47.0°
